sat.trackr.live / text

‹ back to catalog

STSAT-3

NORAD 39422 · 2013-066G

PAYLOAD ACTIVE UNKNOWN

§ Identity

Operator
Country
SKOR
Launch date
2013-11-21
Launch site
DLS
Launch vehicle
Mass (kg)
RCS (m²)
0.46

Purposes: science

External: N2YO · Heavens-Above · Gunter

§ Orbital elements

Epoch: 2026-09-20T04:23:50.798976Z

Period
95.80 min
Inclination
97.6343°
Eccentricity
0.0011455
Mean motion
15.03204674 rev/d
Perigee alt
549.1 km
Apogee alt
565.0 km
Semi-major
6,935.2 km
B*
1.5503e-4
RAAN
231.6102°
Arg perigee
74.9835°
Mean anomaly
285.2657°
Rev number
69,847

§ Raw data

STSAT-31 39422U 13066G   26263.18322684  .00002039  00000+0  15503-3 0  99992 39422  97.6343 231.6102 0011455  74.9835 285.2657 15.03204674698472

JSON: /api/v1/satellites/39422 · /tle

For live sub-satellite position, see the globe view (requires WebGL).

§ Visibility from observer

Set your observer location to see the next 7 days of passes ≥ 10°. The values pass through the URL so the page stays shareable.

No JS? Fill the form by hand. The geolocation button needs JavaScript.